Simultaneous Nadir Overpasses (SNOs) Predictions

Prediction of SNOs between METOP-B and TERRA Satellite Orbit:

Table of predicted SNOs for the next 14.0 days since TLE Epoch: 7/8/2023
Index Date (METOP-B) Time (METOP-B) Lat,Lon (METOP-B) SZA (METOP-B ) Date (TERRA) Time (TERRA) Lat,Lon (TERRA) SZA (TERRA ) Distance(km) Time Diff (sec)
1 07/09/2023 09:59:27 80.81, 62.19 59.79 07/09/2023 09:59:57 80.81, 62.09 59.79 1.67 30
2 07/09/2023 10:50:05 -80.87,-129.40 120.07 07/09/2023 10:49:18 -80.87,-129.56 120.10 2.71 47
3 07/12/2023 01:20:25 -80.77, 11.34 119.97 07/12/2023 01:21:22 -80.77, 11.31 119.95 0.38 57
4 07/12/2023 02:11:02 80.84, 179.85 60.20 07/12/2023 02:10:41 80.83, 179.69 60.17 3.07 21
5 07/14/2023 17:32:01 -80.78, 128.61 119.57 07/14/2023 17:32:06 -80.79, 128.76 119.55 2.74 5
6 07/14/2023 18:22:38 80.85, -62.89 60.60 07/14/2023 18:21:25 80.85, -62.88 60.57 0.41 73
7 07/17/2023 08:52:55 80.78, 78.42 60.86 07/17/2023 08:53:26 80.78, 78.32 60.86 1.92 31
8 07/17/2023 09:43:33 -80.85,-113.12 118.99 07/17/2023 09:42:47 -80.84,-113.29 119.02 2.99 46
9 07/20/2023 00:13:52 -80.76, 27.80 118.74 07/20/2023 00:14:49 -80.76, 27.77 118.72 0.55 57



Historial Predications of SNOs between METOP-B and TERRA
